sat.trackr.live / text

‹ back to catalog

YAOGAN-32 B

NORAD 43643 · 2018-077B

PAYLOAD ACTIVE UNKNOWN

§ Identity

Operator
Country
PRC
Launch date
2018-10-09
Launch site
JSC
Launch vehicle
Mass (kg)
RCS (m²)

External: N2YO · Heavens-Above · Gunter

§ Orbital elements

Epoch: 2026-09-20T04:12:48.172320Z

Period
98.41 min
Inclination
98.1439°
Eccentricity
0.0004498
Mean motion
14.63270466 rev/d
Perigee alt
679.5 km
Apogee alt
685.8 km
Semi-major
7,060.8 km
B*
6.6102e-5
RAAN
290.5206°
Arg perigee
286.6938°
Mean anomaly
73.3770°
Rev number
42,372

§ Raw data

YAOGAN-32 B1 43643U 18077B   26263.17555755  .00000294  00000+0  66102-4 0  99952 43643  98.1439 290.5206 0004498 286.6938  73.3770 14.63270466423721

JSON: /api/v1/satellites/43643 · /tle

For live sub-satellite position, see the globe view (requires WebGL).

§ Visibility from observer

Set your observer location to see the next 7 days of passes ≥ 10°. The values pass through the URL so the page stays shareable.

No JS? Fill the form by hand. The geolocation button needs JavaScript.